STARLINK-1661, 46355

Orbit data source: Space-Track

STARLINK-1661, 46355 is a payload satellite owned by SpaceX/Seattle (US) in LEO that was launched on Thu, 03 Sep 2020 UTC via an FALCON 9 launch vehicle from the Air Force Eastern Test Range (AFETR). Payload-class satellites include a variety of spacecraft equipped with specific instruments for various scientific and technological missions. These include communications satellites like Starlink; space stations such as the ISS; scientific satellites like the Hubble; Earth observation satellites from companies like Planet Labs, Umbra, and HawkEye 360; GPS; miniature CubeSats for education and research; and military/defense satellites.

Loading next visibility...
Identifier
46355, 2020-062AG
Orbit
LEO
Country
Flag of USUS
Related business
Manufacturer
SpaceX/Seattle
Mission
Partially operational Commercial Communications
Bus & Motor
STARLINK, Unknown motor
Mass
260 kg wet, ~248 kg dry
Launch date (UTC)
2020-09-03 (6 years ago)
Launch vehicle
FALCON 9
Launch site
Air Force Eastern Test Range (AFETR)
Object type
Payload
Rocket body
Debris
Shape & HBR
Box + 1 Pan, 10.1 m
Radar Cross Section
13.562 m², Large (>1 m²)

Expand to show TLE details & history
Last TLE update: 1 day ago

TLE from 1 day ago
0 STARLINK-1661
1 46355U 20062AG  26197.19111497  .00030776  00000-0  71724-3 0  9998
2 46355  53.1528 128.9582 0003735  30.4188 329.7034 15.42012709324149
Epoch: 2026-07-16T04:35Z
TLE epoch observation values (Epoch: 2026-07-16T04:35:12.333Z)
Latitude
-0.00001°
Longitude
126.12069°
Altitude
438.875 km
Speed
7.651 km/s
True Right ascension
08h 35m 49s
True Declination
0° 00' 00"
Sunlit
Object was in daylight at epoch
Visualization orbit readout
Latitude
Unknown
Longitude
Unknown
Altitude
Unknown
Speed
Unknown
Apparent Right ascension
Unknown
Apparent Declination
Unknown
Sunlit
N/A
Visualization observer readout
Local Sidereal Time
20:51:07
Azimuth
Unknown
Elevation
Unknown
Doppler factor
Unknown
Orbital elements
Apogee altitude
442.975 km
Perigee altitude
437.882 km
Semi-major axis
6,818.566 km
Eccentricity
0.00037
Inclination
53.1528°
RAAN
128.9582°
Arg. of periapsis
30.4188°
True anomaly
329.6818°
Mean anomaly
329.7034°
Eccentric anomaly
329.6926°
Mean motion
3.85482 °/min
Orbital period
93.39 mins
BSTAR
0.00071724
Loading maneuver chart data...
Computing Atmospheric mass density...

Documentation

Showing up to 5 results
|